Location: Pedholt
(56.0260°N, 10.2097°E)
Time: 02:25:22
(UTC+00:00)

A-11 Canister half - Pass Details

Date: 31 July 2021
Orbit: 1514 x 1685 km, 47.2° (Epoch: 16 September)

Event Time Altitude Azimuth Distance (km) Brightness Sun altitude
Rises 23:25:19 0° 283° (WNW) 4,925 11.8 -16.0°
Reaches altitude 10° 23:29:38 10° 268° (W) 3,947 11.1 -16.0°
Maximum altitude 23:36:07 20° 228° (SW) 3,246 10.3 -15.9°
Enters shadow 23:39:08 17° 206° (SSW) 3,407 10.2 -15.9°
Drops below altitude 10° 23:42:37 10° 187° (S) 3,936 - -15.9°
Sets 23:46:56 0° 171° (S) 4,907 - -15.8°
